Wind_Speed
61 57 55 53 53 52 49 46 45 43 42 42 42 42 42 42 42 42 42 40 39 38 39 41 43 44 44 45 43 40 40 42 42 41 40 39 40 42 45 45 45 50 52 49 47 46 45 45 46 45 44 42 40 38 37 36 33 31 28 28 28 27 26 25 25 24 22 21 21 20 19 18 18 17 16 15 14 13 12 11 10 10 9 9 8 8 8 7
59 56 54 53 53 51 48 46 45 43 42 42 41 41 42 42 42 42 42 40 39 39 39 41 43 44 44 43 43 42 41 42 43 42 40 40 40 42 47 48 49 53 53 50 48 46 46 46 46 45 44 42 40 39 38 35 33 30 29 29 29 27 27 26 25 23 22 21 20 20 19 18 17 16 15 14 13 12 11 11 11 10 9 8 8 8 8 7
57 55 53 52 52 50 48 46 44 43 41 42 41 41 41 42 41 41 41 40 39 39 39 40 42 43 44 42 42 43 42 42 43 43 42 40 39 42 47 50 52 54 53 51 49 47 46 47 47 46 44 43 41 40 38 35 32 30 30 30 29 28 27 25 24 23 21 21 20 20 19 18 17 16 15 14 13 12 11 11 10 10 9 8 8 8 8 7
55 54 52 51 51 49 48 45 44 43 41 41 41 41 41 41 41 40 40 39 39 39 39 40 41 42 42 41 42 43 43 43 44 45 45 42 40 42 47 51 54 54 53 51 49 48 47 47 47 46 45 43 42 41 38 35 33 31 31 30 30 29 27 26 24 23 22 21 20 20 19 18 17 17 16 15 13 12 11 11 10 10 9 8 8 8 8 7
55 54 52 51 50 49 47 45 44 43 41 41 40 41 41 41 41 39 39 39 39 39 38 39 40 40 40 39 41 43 43 44 45 46 47 45 43 43 49 54 55 54 52 50 49 48 48 48 47 46 45 43 42 41 38 35 33 32 31 31 30 29 28 26 25 23 22 21 21 20 19 18 17 16 16 14 13 12 12 11 10 10 9 9 9 8 8 7
55 53 52 51 50 48 46 45 44 43 41 41 40 41 41 41 41 39 38 38 38 38 38 38 38 39 38 38 40 42 43 44 43 43 46 46 46 46 52 56 55 53 51 50 49 48 48 48 47 46 45 43 42 40 37 35 34 33 32 31 31 29 29 27 25 24 23 22 21 20 19 19 18 16 15 14 13 12 12 12 11 11 11 10 10 9 8 8
55 53 52 50 49 48 46 45 44 43 41 40 40 41 41 41 41 39 38 38 38 38 37 38 37 37 36 37 41 42 42 43 42 42 44 46 48 50 55 57 54 52 51 50 49 48 47 47 47 46 44 43 41 39 37 35 34 34 33 32 32 31 29 28 26 24 23 22 21 20 20 19 18 17 15 14 13 11 11 11 12 12 12 11 10 9 8 8
56 54 51 50 49 48 47 45 44 42 41 40 40 41 41 41 40 38 38 38 38 37 37 37 36 35 34 36 40 41 41 41 42 43 42 46 51 54 58 58 54 52 50 49 48 47 47 47 46 45 44 43 41 39 38 36 35 34 33 33 32 31 29 27 26 24 23 21 21 20 20 19 18 18 16 14 12 10 11 12 12 12 12 11 11 10 9 8
56 54 52 50 49 48 47 45 44 42 41 40 40 41 41 40 39 38 37 38 38 37 37 36 36 34 32 35 37 38 39 40 43 43 43 48 54 58 59 57 54 51 50 49 48 48 48 47 46 45 44 43 41 40 38 37 36 35 34 33 32 31 28 27 26 24 23 22 21 21 20 19 19 18 16 14 12 11 12 12 12 13 13 12 12 10 9 8
55 54 52 50 49 48 46 45 44 42 41 41 41 41 41 40 38 38 37 37 37 36 36 35 34 32 30 33 34 35 38 42 44 44 46 52 57 59 58 55 53 51 50 49 48 48 48 48 47 46 44 43 42 40 38 38 36 35 35 33 32 31 28 27 26 25 24 23 22 21 20 20 19 17 15 14 13 12 12 13 13 13 13 13 13 12 11 9
55 54 52 50 49 48 46 45 44 42 41 41 41 41 40 39 38 37 37 37 36 36 35 34 32 30 29 30 31 35 40 44 47 48 51 55 58 57 55 54 53 52 50 49 48 48 49 49 48 47 46 44 43 41 39 38 37 36 35 33 32 31 29 28 27 26 25 24 23 22 21 20 19 17 16 15 14 13 12 13 14 14 14 14 13 12 11 10
54 53 52 50 49 47 46 45 43 42 42 42 42 41 40 38 37 37 38 37 37 36 34 32 30 28 28 29 33 39 43 47 49 51 55 58 58 56 54 54 53 52 51 50 49 49 49 49 48 47 46 45 43 42 41 39 38 36 35 34 32 31 30 28 27 27 25 24 23 22 22 20 19 19 18 16 14 13 13 14 15 14 14 14 14 13 12 11
54 53 52 50 49 48 46 45 43 43 43 42 42 41 40 38 38 38 38 38 37 35 33 32 30 28 28 30 39 45 47 49 51 54 57 57 57 55 53 53 52 52 51 51 50 50 50 50 49 48 47 45 44 43 41 40 38 37 36 34 33 31 30 28 28 27 26 25 24 23 22 21 21 20 18 16 15 15 14 15 16 15 15 15 15 14 13 13
54 53 52 50 49 48 47 45 44 43 43 42 42 41 40 38 39 39 39 39 37 36 34 32 31 29 30 36 45 49 50 52 53 56 57 55 55 54 53 52 52 52 52 51 51 51 51 50 50 49 48 46 45 44 42 41 39 38 37 35 34 31 29 27 27 27 26 24 24 23 22 22 22 20 18 18 17 16 16 16 16 16 16 16 15 15 14 14
55 54 52 50 50 48 47 46 45 44 43 42 41 41 40 40 41 41 41 40 38 36 35 33 32 31 34 43 49 51 52 53 53 56 55 53 53 52 53 52 51 52 52 52 51 51 51 50 51 50 49 48 46 45 43 42 40 38 37 35 33 30 27 27 27 26 25 24 24 23 22 23 23 20 19 20 19 17 16 16 16 16 17 16 16 15 15 15
55 54 52 50 50 48 47 46 45 45 44 42 42 41 41 42 43 43 43 42 39 38 36 35 34 34 39 47 51 52 53 53 53 54 53 52 52 52 53 52 51 52 52 52 51 51 51 50 51 50 49 48 46 45 43 42 41 39 36 33 30 28 27 27 26 25 25 24 24 23 22 23 23 21 21 21 20 18 17 16 17 17 17 17 17 16 16 16
55 53 52 51 50 49 48 46 45 45 44 43 42 41 42 44 45 45 45 43 41 39 38 37 37 38 43 49 52 53 53 52 51 50 51 50 50 51 52 52 51 51 51 51 51 51 51 51 51 50 48 47 46 45 44 43 41 38 34 32 30 29 28 27 25 25 25 24 25 24 23 23 24 23 23 23 22 20 18 17 17 18 17 17 17 16 16 17
55 53 53 52 50 49 48 47 46 45 44 44 43 43 44 45 46 46 46 44 43 42 41 40 39 40 44 50 53 53 52 51 49 47 49 49 50 51 51 51 50 50 51 51 51 51 52 52 51 50 49 47 46 45 44 41 37 34 32 30 29 28 28 27 26 26 26 26 26 25 23 23 25 24 24 25 24 21 19 18 18 19 18 18 17 17 18 18
56 54 53 52 51 50 48 47 46 45 45 44 43 43 44 46 47 47 47 45 43 43 41 40 39 40 44 51 55 54 51 52 49 47 48 49 49 50 50 49 49 50 51 51 51 52 53 53 52 52 50 48 46 45 42 38 35 34 33 32 31 30 30 29 29 28 27 27 26 26 24 25 27 26 25 26 25 22 20 20 20 20 20 19 18 19 19 20
56 55 54 53 52 51 49 48 47 45 44 43 43 43 43 44 45 46 46 46 44 42 40 38 40 41 45 52 55 52 51 51 49 47 47 48 48 49 48 48 48 49 50 50 51 52 52 53 53 50 48 46 45 43 41 38 37 36 35 34 33 33 32 31 30 29 28 27 26 26 25 26 27 27 27 27 26 23 22 21 22 22 22 21 20 20 20 21
56 57 56 55 53 51 50 49 47 46 44 43 42 42 42 42 42 42 44 46 45 43 42 40 42 43 46 52 52 50 49 48 47 46 46 47 48 48 48 47 47 48 50 50 51 51 52 52 50 48 45 44 44 43 41 40 38 37 36 35 34 33 32 31 30 29 28 28 27 26 26 27 29 29 29 28 26 25 25 24 23 24 24 22 22 22 21 22
56 58 58 56 54 52 50 49 48 46 44 43 42 41 41 42 44 43 44 46 46 45 45 44 45 46 48 51 51 50 48 46 45 44 45 46 47 48 48 47 46 46 48 49 50 51 52 51 48 47 46 46 45 44 43 41 40 38 37 36 35 33 32 30 30 29 29 28 28 28 27 27 29 30 29 28 27 27 28 26 24 25 25 24 24 24 23 23
55 58 59 57 56 54 51 49 48 46 44 42 41 42 43 45 47 47 47 47 47 47 47 47 47 47 49 50 50 50 48 45 43 43 43 45 45 47 48 47 45 45 46 47 47 49 50 49 48 47 47 46 46 45 44 42 41 40 38 36 34 33 31 30 30 29 29 29 29 29 28 28 30 31 30 29 28 28 29 28 26 26 26 26 27 26 25 25
55 57 59 59 57 56 53 51 49 46 44 42 41 42 43 46 49 50 49 49 50 50 49 49 48 48 49 50 49 49 47 45 42 41 41 42 43 45 46 46 45 44 44 45 45 46 46 46 46 47 46 46 46 45 44 43 41 40 38 36 34 33 32 31 31 31 30 30 30 29 29 28 30 31 31 31 30 29 30 29 28 28 27 28 29 28 27 26
57 58 60 60 58 57 55 53 50 46 44 42 42 42 42 45 49 50 51 51 52 52 52 52 50 49 50 50 48 47 47 45 43 41 40 41 41 43 44 45 44 44 44 44 44 45 45 45 46 46 46 45 45 44 43 42 41 39 38 36 35 33 33 32 32 31 31 31 30 30 30 28 29 31 32 32 31 30 31 31 30 30 30 30 30 29 28 27
58 60 61 62 60 59 57 54 51 47 44 43 42 41 42 44 47 50 51 52 53 53 54 54 52 51 51 50 49 48 47 46 44 42 41 41 42 42 43 44 44 44 44 44 45 46 45 44 45 46 46 46 45 44 43 42 41 39 37 36 35 34 33 33 33 32 32 32 30 30 31 29 28 30 32 32 32 31 31 31 31 31 31 31 30 30 29 27
58 61 63 63 62 60 58 55 53 50 46 44 42 41 41 43 46 49 51 52 55 54 53 55 55 53 52 51 50 49 49 47 46 44 42 42 43 42 43 44 44 44 44 45 46 46 45 44 45 46 46 46 46 44 43 42 41 39 38 37 36 36 36 36 35 34 33 32 31 30 31 29 27 28 31 32 32 32 32 32 33 34 33 31 30 29 29 29
58 61 63 64 63 61 58 55 53 51 47 45 43 41 41 43 45 48 50 53 56 56 54 54 56 56 54 53 52 51 50 48 47 46 44 43 43 43 43 44 44 44 44 44 44 44 43 43 44 45 45 45 44 43 42 42 41 40 39 39 38 38 38 37 36 35 34 33 32 31 31 31 27 26 29 31 32 33 32 32 34 34 33 31 30 30 30 30
59 61 64 65 64 62 60 57 53 51 49 46 44 42 42 43 45 48 50 53 56 57 55 53 56 57 56 54 53 52 51 50 49 47 45 45 44 44 43 44 44 44 44 44 43 43 43 42 43 44 44 44 43 43 42 42 42 41 41 40 40 40 39 38 37 36 36 35 33 31 31 32 29 25 28 31 32 32 32 33 34 34 33 33 32 31 31 32
61 62 65 66 66 64 61 59 57 54 51 49 46 44 43 43 46 48 52 55 56 56 56 54 54 57 57 56 55 54 53 52 51 49 48 46 45 45 44 44 44 44 44 45 45 44 43 42 43 43 43 43 44 43 43 43 43 43 43 42 41 41 40 39 38 37 37 35 33 32 31 32 31 26 26 30 31 31 32 33 33 34 34 34 33 32 32 32
62 63 65 67 67 65 61 59 58 56 54 52 49 48 46 45 45 48 52 56 56 56 57 55 53 55 56 56 55 55 55 54 53 52 51 49 47 47 47 46 46 46 45 46 46 45 44 43 44 44 43 43 43 43 44 44 44 44 44 43 42 42 41 40 40 38 38 36 34 33 33 33 33 28 25 27 30 31 31 32 33 34 34 34 34 34 33 33
63 63 66 67 68 66 62 59 58 57 56 54 52 51 50 49 49 50 52 54 55 56 57 55 53 52 54 55 55 55 56 56 56 54 53 51 49 48 48 47 47 47 47 47 47 46 44 44 44 44 44 44 44 44 44 45 45 44 43 42 42 42 42 41 40 39 37 36 35 34 33 33 32 30 28 28 29 30 31 32 33 34 34 34 34 34 34 34
64 64 66 67 67 66 63 59 58 57 56 54 54 54 53 53 54 54 53 54 55 56 56 55 54 52 52 54 56 57 57 57 57 56 55 53 51 49 48 47 46 46 46 46 46 46 45 45 45 45 44 44 44 43 43 43 43 43 42 42 41 40 40 39 38 38 37 37 37 35 35 34 33 32 32 30 29 30 30 32 32 33 34 34 34 34 34 34
64 64 66 67 67 67 65 61 59 58 56 55 55 55 56 57 57 55 55 54 54 54 55 55 54 53 53 54 55 56 58 59 58 58 57 56 54 52 50 49 48 46 45 44 44 44 45 45 44 44 44 43 43 42 42 41 41 42 41 41 41 40 40 40 39 39 39 39 39 38 37 36 34 35 35 32 30 29 30 32 33 33 35 35 34 34 34 33
64 65 66 67 68 68 67 65 61 59 57 56 56 58 59 59 59 58 57 55 53 54 54 54 53 53 54 54 54 55 57 60 61 59 59 58 56 54 51 50 49 48 47 46 46 45 44 44 44 43 43 42 42 43 43 43 43 43 43 42 42 42 42 42 41 41 40 40 40 39 38 36 35 36 36 33 31 30 31 33 34 35 35 35 35 35 35 34
64 66 67 67 68 67 68 67 64 61 59 57 59 62 61 59 59 59 58 55 54 54 53 52 52 53 54 55 55 55 55 58 61 61 60 59 59 56 53 50 49 48 47 46 45 45 45 44 44 43 43 43 43 43 43 43 43 44 44 43 42 42 42 42 41 41 41 41 41 40 39 37 36 37 37 35 33 32 31 33 34 35 36 35 36 36 36 36
64 67 68 69 68 68 68 67 66 64 61 60 62 64 62 61 61 59 57 56 54 53 52 50 50 52 54 55 55 55 54 56 60 63 61 60 61 60 56 53 50 48 47 45 44 44 43 42 43 43 43 43 42 42 42 42 42 42 42 41 40 41 41 40 40 41 42 43 43 42 41 39 38 38 37 36 35 32 31 32 33 35 36 36 37 37 37 36
63 66 69 69 69 68 67 67 67 66 65 65 66 66 65 64 63 60 59 58 55 53 52 50 49 49 50 53 54 54 55 55 58 62 64 63 62 62 59 56 53 50 48 46 45 44 43 43 43 43 42 42 42 42 43 42 42 42 41 41 41 41 41 40 41 42 43 43 44 44 43 41 38 37 36 36 36 33 31 31 33 34 36 37 37 36 36 36
63 66 69 70 70 69 68 67 67 67 68 69 69 68 67 66 64 62 61 60 57 55 53 51 50 48 48 49 51 52 54 55 55 59 64 66 65 63 60 58 55 53 50 48 47 46 45 45 45 44 44 44 44 44 44 44 43 42 42 42 42 42 42 41 42 43 43 43 44 45 44 42 38 36 36 37 37 35 32 32 33 34 35 35 36 35 35 35
62 66 68 70 71 71 70 68 67 68 70 71 70 70 69 67 66 65 62 60 58 57 55 53 51 50 49 48 48 49 51 52 53 54 59 65 66 64 61 59 57 54 51 50 48 47 46 46 46 46 45 45 46 45 44 43 43 42 42 41 41 41 41 41 41 41 41 42 43 45 45 42 38 37 37 37 38 37 35 33 32 33 33 34 35 35 35 35
61 64 67 70 72 72 72 72 71 71 71 71 71 71 70 68 67 65 63 61 60 58 57 55 52 51 50 48 47 48 49 51 52 53 54 60 65 66 62 60 58 55 53 52 50 48 48 47 47 47 47 46 46 45 44 43 43 42 41 40 40 39 39 40 41 41 41 42 43 45 45 42 39 38 38 38 38 38 36 34 33 33 33 34 34 35 36 36
62 64 64 67 70 71 72 73 72 72 71 71 72 71 70 69 67 65 64 63 61 60 59 57 54 52 51 50 48 47 48 50 51 53 53 54 59 64 64 61 58 56 54 53 51 49 48 47 48 48 47 47 47 46 45 45 44 43 42 41 40 40 40 41 42 42 42 44 44 44 46 43 39 38 38 38 38 37 36 35 34 33 33 34 35 35 36 37
64 63 64 66 68 69 71 72 71 71 71 71 71 71 70 69 67 65 65 64 61 61 60 59 57 54 53 52 51 49 49 49 50 51 52 52 54 58 63 64 61 59 57 56 54 52 50 50 50 49 48 48 48 48 47 46 46 45 43 42 42 42 41 42 43 43 44 45 44 45 46 43 38 37 38 38 38 38 38 37 36 35 34 35 35 36 37 37
62 62 65 67 67 69 70 68 64 63 65 68 69 69 69 68 66 65 65 64 62 61 61 60 58 56 54 53 52 52 51 50 51 50 51 53 53 54 58 62 63 62 60 58 57 55 54 54 54 53 53 52 51 51 51 49 48 47 45 44 44 44 44 44 44 44 45 45 43 44 44 40 36 37 39 40 39 39 40 40 39 38 37 37 37 38 38 38
62 63 65 67 68 69 67 63 59 59 61 64 66 67 67 66 65 64 64 64 63 62 60 60 59 57 55 53 52 53 53 52 52 51 51 52 54 54 55 59 62 63 62 60 58 57 56 57 57 56 57 57 56 55 53 51 49 48 47 46 45 44 44 44 44 45 45 43 43 43 41 38 37 38 40 42 42 42 41 41 40 40 40 40 41 41 41 41
60 63 66 68 68 67 64 60 59 59 59 60 63 64 64 64 64 63 64 64 64 63 61 60 60 59 56 54 53 53 54 54 54 53 52 52 53 54 55 56 59 63 64 62 61 60 60 60 61 60 60 59 58 55 53 51 50 49 47 45 45 45 45 45 47 46 43 42 44 42 38 38 40 41 43 45 45 44 42 42 43 43 43 44 44 44 44 44
56 58 63 69 70 67 64 61 59 57 56 58 61 62 62 62 63 63 62 63 63 63 62 61 61 61 59 57 55 54 54 56 56 55 54 54 54 53 54 55 57 60 64 65 64 64 63 64 64 63 62 61 59 57 55 54 53 52 50 49 48 47 48 48 50 48 44 47 48 43 40 42 43 44 45 45 45 45 44 45 45 45 46 47 48 48 47 47
51 51 55 63 69 67 63 59 58 57 58 59 61 62 63 63 62 61 60 59 59 60 61 60 60 60 60 58 57 56 55 56 57 57 56 55 55 54 53 54 56 58 61 64 65 66 66 66 66 65 64 62 61 60 58 57 56 55 55 54 53 52 52 52 52 50 49 52 50 44 43 45 46 46 46 46 47 48 48 48 47 48 48 49 50 50 50 51
49 48 47 52 58 63 61 57 56 58 60 62 63 63 64 63 62 60 59 58 59 58 57 57 57 57 58 58 58 57 56 56 57 57 57 55 55 55 54 54 55 56 57 60 63 65 66 67 66 66 65 64 63 63 61 60 59 59 58 58 56 55 55 54 53 51 52 53 49 47 49 49 48 48 47 47 50 50 50 50 50 50 50 50 51 53 54 55
51 49 47 45 46 52 56 56 56 57 58 61 63 64 64 63 62 62 61 61 61 59 56 55 56 56 56 57 57 57 56 55 55 56 56 55 55 54 53 53 53 54 54 56 58 61 63 64 65 65 65 65 65 64 64 64 63 61 61 60 59 58 57 56 55 53 54 54 50 51 53 51 48 48 47 48 51 51 53 53 52 52 52 52 55 56 57 57
54 52 49 46 44 44 48 50 53 56 58 58 59 60 62 62 62 61 62 62 61 59 57 55 55 55 55 55 55 54 54 53 54 55 56 56 55 53 52 53 52 52 52 52 54 56 57 59 60 61 63 64 63 63 64 64 63 64 63 61 61 60 59 57 55 54 55 54 52 54 54 50 48 48 47 50 52 52 54 54 54 54 55 56 58 59 59 59
58 55 51 49 48 46 45 45 47 51 54 54 54 55 56 57 57 58 59 58 57 56 55 54 54 54 53 53 53 52 52 52 52 53 55 56 56 55 54 54 53 53 53 52 52 52 53 54 55 57 59 59 60 61 61 62 64 66 63 59 58 58 58 58 58 57 57 56 56 57 53 50 50 51 50 52 53 54 54 55 56 57 58 59 60 60 60 61
Wind_Direction
217 219 220 220 221 223 222 221 221 220 220 221 222 222 222 223 224 224 223 222 222 221 219 219 220 220 219 219 221 219 217 217 219 223 223 221 220 218 215 207 196 190 188 189 191 191 191 192 192 190 188 187 186 184 184 185 183 182 179 177 178 180 180 180 181 180 180 182 183 183 183 181 177 178 179 179 180 181 182 187 192 195 195 184 179 177 170 169
216 218 219 219 220 222 221 220 220 219 219 220 222 222 222 223 225 226 226 223 222 222 220 220 220 221 221 221 222 222 221 219 218 220 220 220 219 220 217 204 193 190 188 189 191 191 192 192 192 190 188 187 185 183 184 184 183 181 177 176 179 182 183 182 182 181 181 184 187 187 185 183 181 181 182 182 184 184 186 193 197 200 204 196 187 184 179 177
216 218 219 219 220 220 220 218 219 218 217 219 220 221 222 224 225 227 228 225 223 223 221 221 221 221 221 221 223 222 222 223 223 222 220 220 219 221 216 200 190 189 187 189 191 192 192 192 191 190 188 186 184 183 184 183 181 178 176 177 180 183 184 184 183 183 182 187 191 190 188 187 185 184 184 184 186 187 190 196 201 205 209 204 197 191 185 182
215 217 218 219 219 219 218 217 218 218 217 218 219 221 222 224 225 227 228 227 225 224 222 221 222 222 221 220 223 223 222 224 224 222 221 222 224 223 213 197 189 189 188 189 191 192 193 192 191 190 189 186 183 183 183 181 179 177 177 179 182 184 185 185 184 183 184 189 193 193 191 191 190 188 188 188 189 189 192 196 200 207 211 209 204 196 189 183
214 215 217 218 218 218 217 216 217 217 216 217 218 220 221 223 225 226 228 228 227 225 222 223 223 223 222 220 222 223 222 223 222 223 223 222 224 222 206 193 189 189 189 190 191 192 193 192 191 191 189 185 183 183 181 179 178 177 179 181 184 185 185 186 186 183 186 191 195 196 194 194 195 194 194 193 193 191 191 195 198 202 209 213 209 200 192 183
212 214 216 217 217 216 215 214 215 215 215 216 217 219 221 223 224 226 227 228 228 226 223 224 224 223 221 219 222 223 221 223 222 224 225 222 221 215 198 189 189 189 190 191 191 192 193 192 192 192 189 185 183 182 179 178 177 178 181 183 184 186 187 187 186 184 187 191 195 198 197 197 198 199 199 196 197 196 195 197 198 198 202 209 210 205 197 186
211 213 215 216 216 215 214 213 213 213 213 214 215 218 220 222 224 225 226 228 228 226 224 224 225 224 219 218 221 222 220 221 222 223 224 222 216 206 192 187 189 190 191 191 191 193 193 192 193 192 189 185 183 181 179 178 178 180 183 185 186 188 189 188 186 187 189 190 195 199 201 200 200 202 201 199 201 201 200 201 202 201 202 204 206 206 202 193
210 212 213 215 214 214 213 211 212 211 212 213 214 218 220 222 223 224 225 227 227 225 224 224 225 223 217 217 219 219 219 219 220 221 221 217 206 195 188 186 189 191 191 192 192 193 193 193 194 192 189 185 183 181 180 179 180 182 184 186 188 190 191 189 187 189 190 191 196 200 202 202 203 205 202 201 204 204 203 204 203 201 201 202 203 204 203 199
208 210 212 214 214 213 212 210 210 210 210 211 213 217 219 221 221 222 224 225 226 225 224 225 226 223 216 217 217 216 215 215 217 215 212 208 196 188 186 186 188 192 192 192 192 193 193 193 194 193 190 186 183 182 181 180 182 184 186 188 190 191 191 190 189 191 192 194 198 200 203 204 205 206 203 203 206 205 204 204 204 200 199 200 200 201 201 202
207 209 211 213 213 213 211 209 208 209 209 210 213 216 219 221 220 221 222 222 224 223 224 225 226 224 217 217 217 212 210 211 211 206 203 199 189 184 185 186 189 192 193 193 193 193 194 194 193 192 190 187 185 183 182 182 183 185 187 189 191 192 191 190 191 193 194 196 200 202 204 206 208 207 204 205 208 208 207 206 206 202 200 199 199 200 201 203
206 208 210 211 213 212 210 209 207 208 208 210 213 215 218 219 219 220 219 220 221 221 223 224 226 224 218 219 214 203 203 207 204 197 195 191 185 184 186 188 191 192 193 194 194 195 195 194 193 192 190 188 186 184 184 184 185 186 188 190 192 192 191 191 193 195 197 198 202 205 206 207 209 208 206 208 210 211 210 209 210 204 200 200 199 201 202 204
205 206 209 210 211 210 210 208 207 207 208 211 213 215 217 217 217 218 216 216 217 219 222 223 225 222 218 217 204 195 199 202 198 191 189 186 183 185 187 189 192 193 193 194 195 195 195 195 194 193 192 189 188 186 186 186 186 188 189 191 193 193 192 193 195 198 200 200 203 207 209 208 209 210 208 210 212 211 210 208 209 204 199 199 199 201 203 205
203 205 207 208 209 209 208 207 206 207 209 211 213 214 215 214 215 215 213 213 213 217 219 220 222 219 217 207 194 193 197 197 192 188 186 185 184 186 188 190 193 193 194 195 196 196 196 195 194 194 193 191 190 188 187 187 187 189 191 192 194 195 194 194 197 200 201 202 205 209 210 209 212 212 208 211 214 212 212 209 209 207 202 200 200 203 203 206
202 204 206 206 207 207 207 205 204 206 209 211 213 214 213 212 212 211 210 209 211 214 216 218 218 216 212 197 189 193 195 192 188 185 185 185 186 188 190 192 194 195 196 196 197 197 197 196 195 194 194 193 192 190 189 190 189 190 192 194 195 196 195 197 201 203 204 205 207 210 209 212 217 214 209 213 216 215 215 213 211 209 206 203 203 205 205 209
201 203 204 205 205 205 205 204 204 205 209 211 213 213 211 209 209 207 206 207 209 211 213 216 215 215 206 192 190 194 192 188 186 185 186 187 189 190 191 193 194 196 197 197 197 198 198 198 197 196 195 195 193 192 192 192 192 192 194 195 196 196 196 199 203 205 207 207 210 211 209 214 220 216 213 217 218 219 219 216 214 211 209 206 205 207 208 212
200 202 203 203 204 204 204 204 204 205 208 210 211 211 210 208 207 205 204 205 207 207 210 212 212 212 200 190 192 194 190 187 185 186 187 189 191 193 193 194 195 196 197 198 198 198 199 199 199 198 198 197 195 195 195 195 194 195 195 195 195 198 200 203 205 207 209 210 213 213 210 215 220 217 217 221 221 222 221 219 217 216 213 210 210 211 213 214
200 201 201 202 203 203 204 204 205 206 208 209 209 208 208 207 205 204 203 205 205 205 208 208 208 208 197 192 195 193 189 186 185 188 190 191 193 194 195 195 196 197 198 199 199 199 200 199 199 200 200 199 197 197 197 197 196 196 196 195 196 200 203 207 208 209 212 213 216 217 212 216 221 218 217 222 223 222 222 222 220 219 217 216 217 217 218 218
200 200 200 201 202 202 204 204 205 207 208 208 208 207 207 206 204 204 204 205 205 205 207 207 208 207 200 197 196 193 189 187 187 189 191 193 195 196 196 196 197 199 199 200 200 200 200 200 200 201 201 200 199 198 199 198 197 198 199 199 200 203 206 209 211 211 214 215 217 219 215 216 222 221 218 223 225 222 223 225 222 220 219 220 221 221 221 222
199 199 199 200 201 202 203 204 206 208 209 209 208 207 207 206 204 204 205 206 207 208 211 213 212 210 204 198 195 193 190 188 189 191 192 195 196 197 197 198 199 200 201 202 202 202 201 201 201 201 201 200 200 201 201 200 201 202 203 203 204 207 209 211 214 215 216 218 218 219 216 217 223 224 221 223 226 225 224 225 223 220 221 221 222 223 223 224
198 198 199 199 200 201 202 204 207 208 210 210 210 210 209 209 207 206 208 208 208 210 212 212 210 207 202 197 195 193 191 189 190 192 193 195 197 198 198 199 200 201 202 203 203 204 203 203 203 202 203 204 204 205 205 204 205 205 205 206 207 209 211 213 216 218 220 221 221 221 218 218 223 226 225 224 226 227 226 224 222 221 222 223 223 226 226 227
198 198 198 198 199 200 202 204 206 208 209 210 210 211 211 213 211 212 213 210 208 209 207 206 206 205 200 197 196 194 193 192 192 194 195 196 197 198 199 200 201 202 203 203 204 205 205 205 204 204 206 208 208 208 208 208 208 209 208 209 211 212 213 215 217 219 221 223 223 223 220 218 222 226 227 226 225 226 227 225 223 223 225 225 227 229 230 232
199 198 196 197 198 199 201 203 206 207 209 210 210 210 210 210 209 211 212 210 208 208 204 203 204 205 201 198 197 196 195 194 195 196 197 198 199 200 200 201 202 203 205 205 205 206 205 204 205 207 208 208 209 209 209 210 210 211 211 212 214 215 216 218 220 222 224 226 226 227 225 221 223 227 228 228 224 224 227 227 226 226 226 227 229 231 233 235
200 199 197 196 197 199 201 203 205 206 208 209 210 209 208 206 206 207 207 207 208 209 206 202 202 203 200 198 198 197 196 196 196 198 199 200 200 201 201 202 203 204 206 206 207 208 207 206 208 209 209 210 210 211 211 212 212 213 214 215 217 218 219 221 223 224 225 227 228 230 230 225 226 229 229 229 225 223 227 228 228 229 227 228 230 231 234 236
200 200 198 197 197 199 201 203 205 206 207 208 208 209 207 205 205 205 206 206 207 210 208 203 203 202 200 199 199 198 197 196 196 198 200 202 202 202 202 203 205 206 207 207 207 208 208 210 211 212 212 212 212 212 213 214 215 216 217 218 219 220 222 223 225 226 226 228 229 231 232 227 227 230 230 231 228 224 227 228 228 230 230 230 232 232 235 237
200 200 199 198 199 200 202 204 205 205 206 207 208 208 208 206 205 205 206 207 208 210 208 203 203 203 201 200 199 198 198 197 196 197 199 202 203 204 204 205 206 206 207 208 208 208 209 210 212 213 214 214 215 215 216 217 218 219 219 220 222 223 225 225 227 228 229 231 230 232 234 229 227 230 231 232 231 226 227 228 229 232 232 232 234 235 237 240
200 200 200 199 199 201 202 204 204 204 205 206 207 208 208 207 205 206 207 208 210 212 210 204 202 203 202 201 200 198 198 197 196 196 197 200 201 203 204 205 206 206 207 209 210 209 209 210 211 212 213 214 215 216 217 219 220 220 221 223 224 226 227 228 229 231 233 233 233 235 237 233 228 231 232 233 234 230 228 229 230 233 235 234 235 238 240 241
200 201 201 200 200 201 203 204 204 205 205 206 206 208 208 207 206 206 207 210 211 212 213 208 204 203 203 203 202 200 200 198 197 196 197 198 199 201 203 204 206 207 208 210 210 210 210 211 212 213 213 214 215 216 217 219 221 222 223 225 226 227 228 230 231 233 234 236 236 236 239 239 231 230 234 234 235 234 231 229 230 234 237 238 238 240 241 242
200 201 201 201 201 201 202 204 204 205 206 206 206 207 208 207 207 207 208 211 212 212 213 210 206 204 203 203 203 201 201 199 198 198 197 198 199 199 200 201 203 206 208 211 211 211 212 212 213 214 215 216 216 217 219 220 222 223 224 226 227 228 229 230 232 234 235 237 238 238 240 242 235 229 234 237 236 235 234 232 232 235 238 240 241 241 242 243
200 202 202 202 202 202 203 203 203 205 206 207 206 207 208 207 207 207 209 212 213 213 214 213 209 206 205 204 204 202 200 200 200 199 198 199 199 199 199 200 201 203 205 207 209 210 212 212 213 215 215 216 217 219 220 221 223 223 225 226 227 228 229 231 232 234 236 236 237 239 240 243 241 231 232 238 238 237 237 237 236 236 238 239 240 241 242 244
201 202 202 203 203 204 205 204 203 203 205 207 208 208 208 209 208 208 210 212 213 214 215 215 212 209 207 206 205 203 201 201 200 199 199 200 200 200 200 200 201 202 202 204 205 207 209 211 213 215 215 216 217 219 220 221 222 223 224 226 227 228 229 231 232 234 236 237 238 240 242 245 245 237 232 236 239 239 239 240 239 239 239 239 240 241 243 244
201 202 202 204 204 204 206 206 205 204 204 207 209 210 210 210 211 211 211 212 214 215 216 216 214 212 210 209 208 205 203 202 201 200 200 200 201 201 202 202 202 202 202 203 204 205 206 209 211 213 215 216 217 219 220 221 222 223 224 225 227 228 229 230 232 233 236 237 239 241 243 245 246 243 238 237 239 240 240 241 242 241 241 241 241 242 243 244
200 202 202 204 205 205 205 205 207 207 207 207 209 211 211 212 212 212 211 213 215 215 216 218 216 214 212 211 212 209 205 204 202 202 202 201 202 203 204 204 204 204 203 203 205 205 206 208 210 212 213 214 216 218 219 221 222 223 224 225 227 228 229 231 232 234 237 239 241 243 245 247 248 250 247 241 239 240 241 244 245 245 245 244 244 244 245 247
199 201 202 204 205 206 205 205 206 208 209 210 211 211 212 214 213 212 211 213 215 215 216 219 218 216 215 214 214 212 208 205 204 203 203 202 203 204 205 206 207 208 208 207 208 208 208 209 210 212 214 215 217 219 221 222 224 226 227 228 230 231 233 235 237 239 241 243 244 246 247 248 248 251 251 248 244 242 243 245 247 248 248 247 247 247 248 249
200 201 202 204 205 206 206 206 206 207 209 210 213 214 213 215 214 213 213 214 215 215 216 218 219 218 218 216 215 214 211 207 205 204 204 204 204 204 205 206 207 207 209 211 212 213 213 214 214 215 217 218 220 222 223 224 226 227 228 230 231 233 235 236 238 240 241 242 244 245 246 246 247 251 253 253 251 247 244 244 245 246 247 248 250 250 251 252
201 202 203 204 206 207 207 207 206 207 208 210 213 216 216 216 215 214 214 214 215 216 216 218 219 219 220 218 216 216 214 210 207 206 205 205 206 205 205 206 206 207 208 210 212 213 214 216 217 219 220 220 222 223 224 225 226 228 228 229 231 232 234 236 237 239 240 242 243 244 246 247 248 252 255 256 254 250 246 244 244 245 246 247 249 250 252 253
203 202 204 205 206 208 208 208 207 207 210 211 214 216 216 216 218 217 216 215 215 217 218 218 219 219 220 220 218 217 216 213 210 209 208 207 206 206 206 207 208 209 210 211 213 214 214 215 216 218 221 222 223 225 225 226 228 229 230 231 233 235 236 237 239 240 242 243 244 245 246 246 248 251 254 256 255 252 247 245 245 246 247 247 248 249 250 252
206 204 205 205 206 208 209 210 209 209 211 214 216 217 215 216 219 218 218 218 217 218 220 220 220 220 220 222 221 219 219 216 213 212 211 210 208 207 206 207 208 210 211 214 217 217 218 219 219 220 222 223 225 227 228 229 230 231 232 233 235 237 237 238 240 241 242 244 244 244 244 244 246 249 253 256 256 253 249 246 245 246 247 247 248 249 250 252
210 207 206 206 207 208 210 211 212 212 213 216 218 218 217 218 219 219 219 220 219 220 222 221 222 222 222 223 223 222 221 220 217 213 212 212 211 208 207 207 207 209 211 214 217 218 219 221 222 222 224 225 226 228 229 230 231 232 233 234 236 238 239 240 242 243 244 245 245 245 244 243 245 248 252 255 256 254 249 246 245 245 246 247 249 251 251 252
212 211 208 207 208 209 209 211 212 214 215 218 219 219 219 219 220 220 221 221 221 221 223 223 222 223 223 224 225 226 225 224 222 217 214 214 213 210 208 209 209 210 211 213 216 218 219 222 223 222 224 226 227 228 229 230 231 232 234 235 236 239 240 241 243 244 245 246 247 246 244 242 243 246 250 253 255 254 250 246 245 245 246 247 249 251 252 252
212 214 211 209 210 210 210 211 213 214 217 219 220 221 221 221 220 221 222 223 222 222 223 224 223 223 223 223 224 226 228 228 226 223 219 216 216 213 211 211 211 212 213 215 216 218 220 222 224 224 225 227 227 228 229 230 232 234 235 236 238 240 242 243 244 245 246 247 248 247 245 243 242 245 247 249 252 252 251 248 246 246 247 248 250 251 252 253
210 213 213 212 212 211 211 212 213 215 218 219 220 222 222 223 222 222 223 224 223 223 225 225 224 224 224 224 225 226 228 229 228 228 225 220 218 217 214 213 214 214 217 218 218 219 221 223 225 226 226 227 229 229 230 232 233 234 235 236 238 239 240 242 242 242 244 245 246 246 245 242 241 243 244 245 248 250 252 251 249 248 248 250 251 251 252 253
211 214 215 214 215 214 214 214 215 217 219 220 220 222 223 224 224 224 224 224 224 223 225 226 226 225 225 225 226 226 228 229 229 229 228 225 222 220 218 217 218 219 221 222 222 224 226 228 229 230 230 230 231 231 232 234 235 235 235 236 237 238 238 240 241 241 243 244 245 246 245 240 239 243 244 245 247 249 252 252 250 249 248 249 250 250 252 254
212 215 217 217 217 217 216 216 217 218 219 220 221 222 224 225 225 226 226 226 226 225 225 225 226 226 226 226 226 226 227 229 230 230 229 228 226 224 221 220 221 223 224 225 225 226 229 232 232 233 234 234 234 234 235 236 236 236 236 237 238 239 240 241 242 242 242 243 244 246 245 240 240 245 247 248 248 250 251 251 251 249 247 248 249 250 253 255
213 216 218 218 219 219 219 220 220 220 220 221 221 222 224 226 226 227 228 229 228 227 227 226 227 227 227 227 227 227 228 228 229 229 229 229 228 228 226 224 224 225 226 226 227 228 230 233 233 233 234 234 235 235 234 234 235 235 234 235 238 239 240 242 242 242 243 243 245 248 247 244 245 247 248 250 250 250 251 252 253 252 251 251 253 253 254 256
213 216 219 220 220 221 222 223 224 223 222 222 222 222 223 226 227 228 230 231 230 229 228 228 228 228 228 229 228 228 228 228 229 229 229 229 228 229 229 228 226 227 227 228 229 230 233 235 234 235 235 234 234 233 232 232 234 235 235 236 239 242 244 246 247 247 247 246 247 249 248 247 248 248 248 250 250 249 252 255 257 258 258 258 257 257 257 258
213 215 217 218 220 223 224 224 224 224 223 223 224 223 224 226 228 229 231 232 232 231 230 229 229 230 230 231 231 230 228 228 229 229 229 229 229 230 231 231 230 228 228 229 230 231 234 235 234 235 236 235 234 234 233 235 237 238 238 240 244 247 249 251 251 250 249 250 250 248 248 247 246 247 248 250 253 254 256 259 261 262 262 262 261 261 262 264
214 215 216 215 217 221 225 224 224 224 224 224 225 225 226 227 229 231 232 233 234 233 231 231 230 231 231 231 232 232 230 229 228 228 228 229 230 230 231 232 233 231 230 230 231 233 235 235 234 234 235 234 234 235 234 235 237 238 238 238 240 243 246 248 249 247 247 249 246 241 243 244 243 246 250 253 257 260 260 260 261 262 263 265 266 266 267 268
214 213 214 214 214 218 222 223 224 225 225 225 225 226 228 230 231 233 233 234 235 234 233 232 232 231 232 233 233 233 233 231 229 228 227 228 229 231 232 233 234 234 233 232 233 234 236 236 235 236 236 235 236 237 237 238 239 240 240 239 239 241 242 244 245 244 245 247 243 239 242 243 242 247 252 254 257 259 260 262 263 264 265 267 269 270 270 270
215 214 212 212 214 216 218 220 222 224 225 226 226 227 228 230 233 235 235 236 236 235 234 233 232 232 232 233 233 234 233 233 232 230 229 229 229 230 231 232 234 236 236 236 237 237 238 238 238 239 239 238 239 240 239 241 242 242 242 241 241 243 244 245 245 245 247 248 245 244 245 243 243 248 252 255 259 261 263 265 266 266 267 268 269 270 270 270
214 217 214 211 211 212 214 217 219 221 223 225 226 227 228 229 231 233 235 237 237 237 236 234 233 233 233 233 233 233 234 233 233 232 231 230 230 231 231 232 234 235 237 238 239 240 241 241 241 242 242 242 242 243 243 244 245 244 243 242 242 243 244 245 246 246 249 249 247 250 250 246 246 252 255 259 262 264 265 267 267 268 268 267 266 266 267 269
212 218 217 214 211 209 210 212 215 218 220 222 224 225 227 229 230 232 234 235 236 237 237 236 235 235 234 234 233 233 233 233 233 232 231 230 230 231 232 232 232 234 235 237 238 241 243 244 244 245 245 245 245 246 247 247 247 247 244 242 242 243 244 246 247 249 251 252 251 253 252 249 250 255 258 260 262 262 264 266 267 266 266 266 266 266 268 269
208 215 218 217 215 213 210 209 211 214 216 219 221 223 224 226 229 230 232 234 234 235 235 235 235 236 236 235 234 232 231 232 232 232 232 231 230 230 231 231 231 232 233 235 237 238 241 243 245 246 247 248 248 249 250 250 249 248 246 245 246 247 247 249 250 251 253 254 255 255 253 252 255 257 256 258 259 260 261 263 264 265 265 266 268 269 270 270
Height
5687 5692 5696 5701 5704 5708 5712 5717 5721 5725 5729 5733 5736 5739 5743 5745 5748 5750 5753 5755 5757 5759 5762 5765 5768 5771 5774 5777 5779 5781 5784 5787 5790 5793 5797 5798 5799 5803 5805 5809 5814 5818 5822 5826 5830 5833 5836 5839 5843 5846 5848 5851 5855 5858 5860 5862 5865 5867 5869 5871 5873 5875 5877 5878 5880 5881 5883 5884 5886 5887 5888 5888 5889 5890 5891 5892 5893 5894 5894 5895 5896 5896 5897 5898 5899 5900 5900 5900
5684 5688 5693 5697 5701 5705 5709 5714 5718 5722 5726 5730 5733 5737 5740 5743 5746 5748 5750 5753 5755 5757 5759 5762 5765 5768 5771 5774 5776 5779 5782 5784 5787 5791 5794 5795 5798 5801 5803 5806 5811 5815 5819 5824 5828 5832 5835 5838 5842 5845 5847 5850 5853 5856 5859 5861 5864 5866 5868 5870 5872 5874 5876 5877 5879 5880 5882 5884 5885 5886 5887 5888 5889 5889 5890 5891 5892 5893 5894 5895 5895 5896 5896 5898 5899 5899 5899 5899
5681 5685 5690 5694 5698 5702 5706 5710 5715 5719 5723 5727 5730 5734 5737 5740 5743 5745 5747 5750 5752 5754 5756 5759 5762 5765 5768 5772 5773 5776 5779 5782 5785 5788 5790 5793 5796 5798 5801 5805 5809 5813 5817 5821 5826 5830 5833 5836 5840 5843 5846 5849 5852 5854 5857 5860 5863 5865 5867 5869 5871 5873 5875 5876 5878 5880 5881 5883 5885 5886 5887 5888 5888 5889 5890 5891 5892 5893 5894 5894 5895 5895 5896 5897 5898 5899 5899 5899
5678 5682 5686 5691 5695 5699 5703 5707 5712 5716 5720 5724 5727 5731 5734 5738 5741 5743 5745 5747 5749 5751 5754 5757 5760 5762 5766 5769 5771 5773 5776 5779 5782 5784 5787 5791 5794 5796 5800 5804 5808 5811 5815 5819 5824 5828 5832 5835 5838 5842 5844 5847 5850 5852 5855 5858 5861 5864 5866 5867 5869 5871 5874 5875 5877 5879 5880 5882 5884 5885 5886 5887 5888 5889 5890 5891 5892 5892 5893 5894 5894 5895 5895 5896 5897 5898 5899 5899
5674 5679 5683 5687 5691 5696 5700 5704 5709 5713 5717 5721 5725 5728 5731 5735 5738 5740 5742 5745 5747 5749 5751 5754 5757 5759 5763 5766 5768 5770 5774 5776 5778 5781 5784 5789 5792 5794 5797 5802 5806 5810 5814 5818 5822 5826 5830 5833 5837 5840 5843 5846 5848 5851 5854 5857 5860 5862 5864 5866 5869 5871 5872 5874 5875 5877 5879 5881 5883 5884 5885 5887 5888 5889 5889 5890 5891 5892 5893 5893 5894 5894 5895 5896 5896 5897 5898 5899
5671 5675 5680 5684 5688 5693 5697 5701 5706 5710 5714 5718 5722 5725 5728 5732 5735 5738 5740 5742 5744 5746 5749 5751 5754 5757 5760 5763 5765 5768 5770 5772 5776 5779 5783 5786 5789 5791 5795 5800 5805 5808 5812 5816 5820 5825 5829 5832 5836 5839 5842 5845 5848 5850 5853 5856 5858 5861 5863 5865 5867 5869 5871 5872 5874 5876 5877 5879 5881 5883 5884 5885 5887 5888 5889 5890 5891 5891 5892 5892 5893 5893 5894 5895 5896 5896 5897 5898
5668 5672 5676 5681 5685 5690 5694 5698 5702 5707 5711 5715 5719 5722 5725 5728 5732 5735 5737 5740 5742 5744 5746 5749 5751 5754 5758 5760 5762 5764 5767 5770 5774 5777 5780 5783 5785 5789 5793 5798 5803 5807 5810 5815 5819 5824 5828 5831 5834 5838 5841 5844 5847 5850 5852 5854 5857 5859 5861 5864 5866 5868 5869 5871 5873 5875 5876 5878 5880 5882 5883 5884 5886 5887 5888 5889 5890 5891 5891 5892 5892 5893 5893 5894 5895 5896 5896 5897
5664 5669 5673 5678 5682 5687 5691 5695 5699 5704 5708 5712 5716 5719 5722 5725 5729 5732 5735 5737 5739 5741 5744 5746 5749 5752 5755 5757 5759 5761 5764 5768 5771 5773 5777 5780 5782 5786 5791 5796 5801 5805 5809 5813 5818 5822 5826 5830 5833 5837 5840 5843 5845 5848 5850 5853 5855 5858 5860 5862 5864 5866 5868 5870 5871 5873 5875 5877 5879 5880 5882 5883 5885 5886 5887 5888 5889 5890 5891 5891 5892 5892 5893 5894 5894 5895 5896 5897
5661 5666 5670 5675 5679 5683 5688 5692 5696 5701 5705 5709 5713 5716 5719 5722 5726 5729 5732 5734 5736 5739 5741 5743 5746 5749 5753 5754 5756 5758 5761 5765 5767 5770 5774 5776 5779 5784 5789 5794 5799 5803 5808 5812 5816 5820 5824 5828 5832 5836 5839 5841 5844 5846 5849 5851 5853 5856 5859 5861 5863 5864 5866 5868 5870 5872 5874 5875 5877 5879 5880 5882 5883 5885 5886 5887 5888 5889 5889 5890 5891 5892 5892 5893 5894 5895 5895 5896
5657 5662 5667 5672 5676 5680 5685 5689 5694 5698 5702 5706 5710 5713 5716 5720 5723 5726 5729 5731 5734 5736 5738 5740 5743 5746 5749 5751 5753 5756 5758 5761 5764 5767 5771 5774 5778 5783 5787 5792 5797 5801 5806 5810 5815 5819 5823 5826 5830 5833 5837 5839 5842 5844 5847 5849 5852 5854 5857 5859 5861 5862 5864 5866 5868 5870 5872 5874 5875 5877 5879 5880 5882 5884 5885 5886 5887 5888 5888 5889 5890 5891 5892 5892 5893 5894 5895 5896
5654 5659 5664 5669 5673 5678 5682 5687 5691 5695 5699 5703 5706 5710 5713 5717 5720 5723 5726 5729 5731 5733 5736 5738 5740 5743 5746 5748 5751 5754 5755 5758 5761 5765 5769 5772 5777 5781 5786 5790 5794 5799 5804 5809 5813 5816 5820 5823 5827 5831 5834 5837 5840 5843 5845 5847 5850 5852 5855 5857 5859 5861 5863 5865 5867 5868 5870 5872 5874 5876 5877 5879 5881 5882 5884 5885 5886 5887 5888 5888 5889 5890 5891 5892 5893 5893 5894 5895
5651 5656 5661 5665 5670 5675 5679 5684 5689 5693 5696 5700 5704 5707 5711 5714 5717 5721 5723 5726 5728 5731 5733 5736 5738 5740 5743 5747 5749 5751 5753 5755 5758 5763 5767 5771 5775 5780 5784 5788 5793 5797 5802 5806 5810 5814 5818 5821 5826 5829 5832 5835 5838 5840 5843 5845 5848 5850 5853 5855 5857 5859 5861 5863 5865 5867 5869 5871 5873 5874 5876 5878 5879 5880 5882 5883 5884 5885 5886 5887 5888 5889 5890 5891 5892 5893 5893 5894
5648 5653 5657 5662 5667 5672 5676 5681 5686 5690 5693 5697 5701 5704 5708 5711 5715 5718 5721 5723 5726 5728 5731 5733 5736 5738 5742 5745 5747 5748 5751 5753 5757 5761 5765 5770 5774 5778 5783 5787 5791 5796 5800 5804 5808 5811 5815 5819 5823 5826 5830 5833 5836 5838 5841 5844 5846 5848 5850 5853 5855 5857 5859 5862 5864 5866 5868 5870 5871 5873 5875 5877 5877 5878 5880 5882 5883 5884 5885 5886 5887 5888 5889 5890 5891 5892 5893 5893
5644 5649 5654 5659 5664 5669 5673 5678 5683 5687 5691 5695 5698 5701 5705 5708 5711 5715 5718 5720 5723 5726 5729 5731 5734 5736 5740 5743 5745 5746 5749 5752 5756 5760 5764 5769 5773 5777 5781 5785 5790 5794 5798 5802 5806 5809 5813 5817 5820 5824 5828 5831 5834 5837 5839 5842 5844 5846 5848 5850 5852 5855 5858 5861 5862 5864 5866 5868 5870 5871 5874 5875 5875 5877 5879 5880 5881 5882 5883 5884 5886 5887 5888 5889 5890 5891 5892 5892
5640 5646 5651 5656 5661 5666 5670 5675 5680 5685 5688 5692 5695 5699 5702 5705 5708 5711 5715 5718 5721 5724 5726 5729 5732 5735 5738 5741 5743 5745 5748 5751 5755 5759 5763 5767 5772 5776 5780 5784 5788 5792 5795 5799 5803 5807 5811 5815 5818 5821 5825 5828 5832 5835 5837 5840 5842 5844 5846 5848 5851 5854 5857 5859 5861 5863 5865 5867 5868 5870 5872 5873 5874 5876 5877 5878 5879 5880 5882 5883 5884 5886 5887 5888 5889 5890 5891 5891
5637 5643 5648 5653 5658 5663 5667 5673 5677 5682 5686 5689 5692 5695 5699 5702 5705 5708 5711 5715 5718 5721 5724 5727 5730 5733 5736 5739 5741 5744 5747 5750 5754 5758 5762 5766 5770 5774 5777 5781 5786 5790 5793 5797 5801 5805 5809 5813 5816 5819 5823 5826 5830 5833 5835 5837 5839 5842 5844 5848 5851 5854 5856 5857 5859 5862 5863 5865 5866 5868 5871 5871 5872 5874 5875 5876 5878 5879 5880 5882 5883 5884 5885 5887 5888 5889 5889 5890
5635 5640 5645 5650 5655 5660 5665 5670 5675 5679 5682 5686 5689 5692 5695 5698 5702 5705 5709 5712 5715 5718 5721 5725 5728 5731 5734 5737 5740 5743 5747 5750 5753 5757 5760 5764 5768 5772 5776 5780 5784 5788 5791 5795 5799 5802 5806 5810 5814 5818 5822 5825 5828 5830 5832 5834 5837 5841 5844 5847 5850 5852 5854 5856 5858 5860 5861 5863 5865 5866 5869 5870 5871 5872 5874 5874 5876 5877 5879 5880 5881 5883 5884 5885 5886 5887 5888 5889
5632 5637 5642 5647 5652 5657 5662 5667 5672 5675 5679 5681 5685 5688 5692 5695 5699 5703 5706 5709 5712 5716 5718 5722 5725 5728 5732 5736 5739 5743 5746 5749 5752 5755 5759 5763 5767 5770 5774 5778 5781 5785 5789 5793 5796 5800 5804 5808 5812 5815 5819 5823 5826 5828 5831 5835 5839 5842 5845 5847 5849 5851 5853 5854 5856 5857 5859 5861 5862 5864 5867 5868 5869 5870 5872 5873 5874 5876 5877 5878 5880 5881 5883 5884 5885 5886 5887 5887
5629 5634 5639 5644 5649 5654 5659 5664 5668 5672 5675 5678 5682 5685 5689 5692 5696 5700 5704 5707 5710 5713 5716 5720 5723 5727 5731 5734 5737 5740 5743 5746 5750 5753 5757 5761 5765 5769 5772 5776 5779 5783 5787 5791 5794 5798 5802 5806 5809 5813 5817 5821 5825 5828 5831 5835 5838 5840 5842 5844 5846 5848 5850 5851 5853 5854 5856 5858 5860 5862 5865 5866 5866 5868 5870 5870 5872 5874 5876 5877 5878 5880 5881 5882 5883 5884 5885 5885
5626 5631 5636 5641 5647 5652 5657 5661 5665 5669 5672 5677 5680 5683 5686 5690 5693 5697 5701 5705 5709 5712 5716 5721 5724 5727 5730 5733 5735 5738 5741 5744 5748 5751 5755 5759 5762 5767 5770 5774 5777 5780 5784 5789 5793 5797 5800 5804 5808 5814 5818 5821 5824 5827 5829 5832 5834 5836 5838 5841 5843 5844 5846 5848 5850 5852 5854 5856 5858 5860 5862 5864 5864 5866 5867 5868 5870 5873 5874 5875 5876 5877 5879 5880 5881 5882 5882 5883
5623 5628 5633 5638 5644 5649 5653 5658 5662 5666 5670 5674 5678 5682 5686 5690 5693 5697 5700 5702 5706 5710 5714 5719 5722 5725 5729 5731 5734 5737 5740 5743 5746 5749 5753 5756 5760 5764 5768 5772 5775 5779 5783 5786 5790 5794 5798 5803 5809 5813 5816 5818 5821 5824 5826 5829 5831 5833 5836 5838 5840 5842 5844 5846 5848 5850 5852 5854 5856 5857 5859 5861 5862 5863 5864 5866 5869 5871 5871 5873 5874 5875 5876 5878 5879 5880 5880 5880
5620 5625 5630 5635 5641 5646 5651 5655 5659 5663 5668 5672 5676 5680 5684 5688 5693 5697 5700 5702 5704 5707 5711 5714 5718 5722 5726 5729 5732 5735 5738 5741 5744 5747 5751 5754 5758 5762 5766 5770 5774 5778 5781 5785 5789 5792 5796 5802 5806 5808 5811 5814 5817 5820 5823 5825 5828 5830 5832 5835 5837 5839 5842 5844 5846 5848 5850 5852 5853 5855 5857 5859 5860 5860 5862 5864 5867 5868 5869 5870 5872 5873 5874 5876 5876 5877 5878 5878
5617 5622 5627 5632 5638 5643 5648 5652 5656 5661 5666 5670 5675 5678 5681 5684 5688 5692 5696 5700 5704 5706 5709 5712 5715 5719 5723 5726 5729 5732 5736 5739 5743 5746 5750 5753 5756 5760 5764 5769 5772 5775 5779 5783 5788 5791 5796 5800 5802 5805 5808 5811 5814 5817 5820 5822 5825 5827 5829 5832 5835 5837 5840 5842 5844 5845 5847 5849 5851 5852 5854 5857 5857 5858 5860 5861 5864 5866 5866 5868 5870 5871 5872 5873 5873 5874 5875 5876
5614 5619 5624 5630 5635 5640 5645 5649 5654 5659 5664 5668 5671 5674 5677 5680 5684 5688 5691 5696 5700 5703 5707 5710 5713 5716 5719 5722 5725 5729 5733 5737 5740 5744 5748 5751 5755 5758 5762 5766 5770 5774 5778 5782 5786 5790 5794 5797 5800 5803 5806 5808 5811 5814 5817 5819 5822 5825 5827 5830 5832 5835 5837 5839 5840 5842 5844 5846 5848 5850 5851 5854 5855 5856 5857 5858 5861 5863 5864 5865 5867 5868 5869 5869 5870 5871 5872 5873
5612 5617 5622 5627 5632 5637 5642 5647 5652 5657 5661 5664 5668 5671 5674 5677 5681 5684 5688 5691 5694 5697 5702 5706 5710 5713 5716 5720 5723 5727 5730 5734 5737 5741 5745 5749 5753 5757 5760 5764 5768 5772 5776 5780 5783 5786 5789 5792 5797 5800 5803 5806 5809 5812 5815 5817 5820 5822 5825 5827 5830 5832 5834 5836 5837 5839 5841 5843 5845 5847 5847 5850 5853 5853 5855 5856 5858 5860 5861 5863 5864 5865 5865 5866 5867 5869 5870 5871
5609 5614 5619 5624 5629 5634 5639 5644 5649 5654 5658 5661 5665 5668 5671 5674 5677 5680 5684 5687 5690 5693 5697 5702 5706 5709 5713 5717 5720 5723 5727 5730 5734 5738 5742 5745 5750 5754 5758 5762 5766 5770 5773 5776 5779 5782 5785 5790 5793 5796 5799 5803 5806 5809 5812 5814 5817 5820 5822 5825 5827 5829 5831 5832 5834 5836 5838 5840 5842 5844 5844 5847 5850 5851 5852 5853 5855 5857 5859 5860 5861 5861 5862 5863 5865 5866 5867 5869
5606 5611 5617 5622 5627 5631 5637 5642 5646 5651 5655 5659 5662 5665 5668 5670 5673 5676 5680 5682 5684 5689 5693 5698 5702 5706 5711 5715 5718 5721 5724 5728 5732 5736 5739 5743 5747 5751 5755 5760 5764 5768 5771 5773 5776 5780 5784 5788 5791 5793 5796 5799 5802 5806 5809 5811 5814 5817 5820 5822 5824 5826 5827 5829 5831 5833 5835 5837 5838 5840 5841 5843 5847 5849 5849 5851 5852 5854 5856 5857 5858 5858 5859 5861 5863 5864 5865 5866
5603 5608 5614 5619 5624 5629 5634 5639 5645 5649 5653 5655 5659 5661 5663 5666 5669 5673 5675 5676 5680 5685 5690 5695 5700 5704 5707 5711 5715 5719 5723 5727 5731 5734 5738 5741 5745 5749 5753 5757 5761 5764 5767 5771 5776 5780 5783 5785 5788 5791 5794 5797 5801 5804 5806 5808 5811 5814 5816 5818 5820 5822 5824 5826 5828 5829 5831 5833 5835 5837 5839 5839 5843 5847 5847 5848 5849 5850 5853 5854 5855 5855 5857 5859 5860 5861 5862 5863
5600 5605 5611 5616 5621 5626 5630 5635 5641 5645 5648 5651 5655 5657 5659 5662 5665 5667 5669 5672 5677 5682 5687 5692 5697 5701 5705 5708 5712 5716 5721 5724 5728 5732 5736 5739 5743 5747 5750 5754 5757 5760 5763 5768 5772 5776 5779 5782 5785 5787 5791 5795 5798 5800 5802 5805 5807 5810 5812 5814 5816 5818 5820 5822 5824 5826 5827 5829 5831 5834 5835 5836 5839 5844 5845 5845 5846 5848 5849 5851 5852 5853 5855 5856 5857 5858 5859 5860
5597 5602 5607 5612 5618 5622 5627 5631 5635 5638 5643 5647 5650 5652 5655 5657 5659 5662 5665 5669 5674 5679 5684 5689 5694 5699 5702 5706 5710 5714 5718 5721 5725 5729 5733 5736 5740 5744 5747 5750 5753 5756 5760 5763 5767 5770 5774 5778 5781 5784 5788 5791 5793 5796 5798 5801 5803 5806 5808 5810 5813 5814 5816 5818 5820 5822 5824 5826 5829 5831 5833 5834 5835 5840 5843 5843 5843 5845 5846 5847 5849 5850 5851 5852 5854 5855 5856 5857
5593 5598 5604 5610 5615 5619 5624 5627 5630 5634 5639 5642 5644 5647 5650 5653 5656 5658 5662 5668 5672 5676 5681 5686 5692 5696 5701 5706 5709 5713 5716 5719 5722 5725 5729 5733 5737 5740 5743 5746 5749 5752 5756 5760 5763 5767 5770 5773 5777 5780 5784 5787 5789 5792 5794 5796 5799 5802 5804 5807 5809 5810 5812 5814 5816 5818 5820 5823 5826 5828 5830 5831 5832 5837 5840 5841 5841 5842 5843 5844 5845 5846 5848 5849 5850 5851 5852 5853
5589 5595 5601 5606 5610 5615 5619 5622 5627 5632 5634 5636 5639 5642 5645 5648 5650 5655 5661 5666 5669 5673 5678 5684 5689 5695 5701 5705 5708 5711 5714 5716 5719 5722 5726 5730 5734 5737 5741 5744 5747 5750 5753 5757 5760 5764 5767 5770 5773 5776 5779 5782 5784 5787 5789 5792 5795 5798 5801 5803 5804 5806 5808 5810 5813 5815 5818 5821 5823 5825 5827 5828 5830 5834 5836 5837 5838 5838 5840 5841 5841 5843 5844 5846 5847 5847 5848 5849
5585 5591 5597 5601 5606 5610 5614 5618 5624 5627 5630 5632 5634 5637 5641 5643 5646 5654 5659 5662 5665 5671 5677 5682 5687 5692 5697 5700 5703 5706 5710 5713 5716 5719 5723 5727 5730 5734 5738 5741 5745 5749 5753 5756 5759 5761 5764 5766 5769 5772 5775 5778 5781 5784 5787 5791 5794 5796 5798 5800 5801 5804 5806 5808 5811 5813 5816 5818 5819 5822 5824 5826 5829 5830 5830 5832 5834 5836 5837 5838 5838 5839 5840 5841 5842 5843 5844 5845
5582 5588 5592 5596 5601 5605 5609 5615 5619 5622 5625 5628 5630 5633 5636 5639 5646 5652 5655 5658 5664 5668 5673 5677 5682 5687 5691 5695 5699 5702 5706 5709 5712 5715 5719 5722 5725 5729 5733 5737 5741 5746 5750 5754 5756 5760 5762 5765 5768 5771 5774 5777 5780 5783 5786 5788 5790 5792 5794 5796 5798 5801 5803 5805 5807 5809 5811 5813 5815 5818 5820 5823 5826 5826 5826 5829 5831 5832 5834 5834 5834 5835 5836 5837 5838 5839 5840 5841
5579 5584 5588 5592 5596 5601 5606 5610 5614 5617 5620 5623 5626 5629 5632 5638 5644 5648 5650 5656 5661 5664 5669 5674 5678 5682 5686 5690 5694 5697 5701 5705 5708 5712 5715 5718 5723 5727 5731 5735 5739 5743 5746 5749 5752 5756 5759 5763 5767 5769 5772 5775 5777 5779 5781 5783 5785 5787 5790 5792 5794 5797 5799 5801 5803 5805 5807 5809 5811 5814 5817 5821 5823 5823 5823 5825 5827 5828 5829 5830 5830 5831 5832 5834 5835 5835 5836 5837
5574 5579 5583 5588 5593 5597 5601 5605 5609 5613 5615 5619 5621 5624 5631 5638 5641 5644 5649 5654 5658 5661 5666 5670 5673 5677 5680 5685 5689 5693 5697 5701 5705 5708 5711 5715 5720 5724 5729 5733 5737 5740 5744 5747 5750 5753 5756 5759 5762 5765 5767 5770 5772 5774 5777 5779 5781 5784 5786 5789 5792 5794 5795 5797 5799 5801 5803 5805 5807 5811 5814 5818 5819 5819 5820 5821 5823 5824 5825 5826 5826 5827 5828 5830 5831 5831 5833 5834
5569 5574 5579 5584 5589 5593 5597 5602 5605 5608 5612 5615 5618 5623 5630 5633 5636 5642 5648 5651 5655 5658 5662 5666 5670 5673 5677 5681 5685 5690 5694 5697 5700 5704 5709 5712 5715 5719 5725 5729 5733 5738 5742 5745 5748 5751 5755 5757 5759 5761 5763 5765 5768 5770 5772 5775 5777 5780 5783 5787 5789 5789 5791 5793 5795 5797 5799 5800 5803 5807 5810 5813 5815 5816 5817 5818 5818 5820 5821 5822 5822 5823 5824 5825 5826 5827 5829 5830
5565 5570 5575 5580 5584 5588 5593 5597 5601 5605 5608 5611 5616 5621 5625 5627 5632 5638 5643 5646 5651 5654 5658 5663 5667 5671 5676 5679 5683 5687 5690 5693 5696 5701 5705 5708 5711 5717 5722 5726 5730 5734 5738 5741 5744 5747 5750 5752 5754 5757 5759 5761 5764 5765 5768 5770 5773 5776 5779 5783 5783 5784 5787 5790 5791 5792 5795 5796 5799 5802 5805 5809 5811 5813 5814 5814 5814 5816 5817 5818 5818 5818 5820 5821 5823 5824 5824 5825
5562 5566 5571 5575 5579 5584 5589 5593 5596 5600 5603 5607 5613 5616 5619 5624 5629 5633 5638 5642 5647 5651 5655 5660 5664 5668 5672 5676 5680 5683 5686 5689 5693 5698 5701 5704 5708 5714 5719 5722 5726 5730 5733 5736 5739 5742 5745 5747 5749 5752 5754 5756 5758 5760 5763 5766 5770 5772 5775 5777 5778 5780 5783 5785 5786 5789 5791 5792 5795 5797 5800 5804 5808 5810 5811 5810 5810 5811 5813 5813 5814 5814 5816 5818 5819 5819 5820 5820
5558 5562 5566 5570 5574 5579 5584 5588 5591 5594 5598 5604 5609 5612 5615 5620 5624 5628 5633 5638 5643 5647 5651 5656 5661 5665 5668 5673 5676 5679 5683 5686 5690 5694 5698 5701 5706 5710 5715 5719 5722 5726 5729 5731 5733 5736 5739 5742 5744 5746 5748 5750 5753 5756 5760 5763 5765 5768 5770 5772 5775 5777 5779 5781 5783 5785 5787 5789 5791 5792 5795 5800 5804 5806 5807 5807 5807 5807 5808 5809 5811 5811 5812 5813 5814 5814 5815 5815
5553 5556 5561 5565 5569 5574 5578 5582 5585 5590 5595 5600 5604 5607 5611 5615 5619 5623 5628 5633 5639 5644 5648 5652 5657 5661 5665 5669 5672 5676 5679 5682 5686 5690 5693 5698 5702 5707 5712 5716 5719 5722 5724 5726 5729 5732 5734 5737 5739 5741 5743 5747 5750 5753 5756 5758 5760 5762 5765 5768 5770 5772 5774 5776 5777 5780 5783 5784 5786 5787 5790 5796 5800 5801 5802 5803 5803 5802 5803 5805 5807 5808 5809 5809 5809 5810 5810 5810
5549 5552 5557 5562 5565 5569 5573 5577 5581 5586 5590 5594 5598 5603 5607 5610 5615 5620 5624 5629 5634 5639 5643 5648 5653 5657 5661 5664 5669 5672 5675 5678 5681 5685 5689 5695 5699 5704 5709 5713 5715 5718 5719 5722 5725 5728 5730 5733 5734 5736 5739 5742 5745 5747 5750 5752 5754 5757 5759 5763 5765 5767 5770 5771 5773 5777 5779 5779 5781 5783 5784 5790 5796 5797 5798 5799 5799 5799 5800 5801 5802 5803 5804 5805 5805 5805 5805 5805
5545 5550 5554 5557 5560 5564 5567 5571 5577 5582 5586 5589 5595 5600 5602 5606 5611 5615 5619 5624 5630 5635 5639 5643 5648 5652 5656 5660 5664 5668 5671 5674 5677 5681 5686 5690 5694 5698 5702 5706 5709 5711 5713 5716 5719 5722 5725 5726 5728 5731 5733 5735 5738 5741 5744 5746 5748 5751 5755 5760 5762 5764 5767 5768 5769 5772 5773 5774 5777 5778 5779 5787 5793 5794 5794 5795 5795 5796 5795 5796 5797 5798 5799 5800 5800 5801 5801 5801
5542 5547 5549 5552 5555 5557 5560 5566 5573 5579 5582 5586 5591 5595 5598 5602 5607 5611 5615 5619 5625 5630 5634 5639 5643 5647 5652 5656 5660 5664 5667 5669 5673 5677 5681 5684 5688 5691 5694 5699 5703 5705 5708 5711 5714 5717 5719 5719 5721 5723 5725 5727 5730 5733 5736 5740 5744 5749 5753 5756 5757 5759 5761 5762 5764 5766 5767 5770 5774 5773 5777 5786 5791 5791 5790 5790 5790 5791 5790 5790 5791 5792 5793 5794 5795 5796 5796 5796
5538 5542 5544 5546 5549 5552 5557 5564 5571 5575 5578 5582 5586 5590 5594 5597 5601 5606 5610 5614 5620 5625 5630 5634 5639 5643 5648 5651 5655 5658 5661 5665 5669 5672 5676 5679 5682 5685 5688 5691 5695 5698 5702 5706 5708 5710 5711 5711 5714 5716 5718 5720 5723 5728 5734 5740 5744 5746 5748 5751 5753 5755 5756 5758 5760 5760 5763 5768 5770 5771 5777 5783 5785 5786 5785 5784 5784 5785 5785 5785 5785 5786 5787 5788 5789 5789 5790 5790
5533 5536 5538 5541 5544 5548 5555 5561 5566 5570 5574 5578 5582 5586 5590 5593 5597 5601 5605 5609 5614 5620 5625 5630 5633 5638 5642 5646 5650 5653 5657 5661 5664 5667 5671 5674 5677 5680 5682 5685 5688 5691 5695 5698 5700 5701 5702 5703 5706 5710 5713 5717 5723 5728 5734 5737 5738 5740 5743 5747 5748 5750 5752 5754 5753 5755 5762 5765 5764 5769 5776 5778 5778 5779 5778 5777 5777 5778 5780 5780 5779 5780 5780 5781 5782 5783 5784 5784
5528 5531 5534 5537 5540 5544 5550 5556 5561 5566 5570 5574 5578 5582 5586 5589 5592 5596 5600 5604 5608 5614 5620 5624 5628 5632 5637 5641 5645 5648 5652 5655 5658 5662 5666 5668 5671 5674 5676 5679 5681 5684 5688 5690 5692 5693 5694 5696 5701 5705 5709 5715 5720 5724 5727 5729 5730 5733 5737 5739 5741 5742 5744 5744 5745 5751 5757 5755 5755 5765 5771 5770 5771 5772 5772 5772 5772 5772 5773 5774 5774 5775 5775 5775 5776 5777 5778 5778
5522 5526 5530 5534 5538 5542 5547 5552 5558 5562 5565 5569 5573 5577 5580 5584 5588 5592 5597 5600 5604 5608 5614 5619 5623 5628 5632 5637 5640 5643 5646 5649 5652 5656 5660 5663 5666 5669 5671 5674 5675 5678 5681 5683 5684 5687 5688 5692 5698 5702 5705 5711 5715 5716 5720 5723 5725 5728 5729 5731 5734 5734 5735 5737 5740 5746 5748 5746 5752 5762 5764 5763 5765 5766 5767 5768 5766 5766 5767 5768 5769 5771 5771 5771 5771 5771 5771 5770
5517 5521 5526 5530 5535 5541 5546 5551 5554 5557 5559 5563 5567 5571 5575 5580 5584 5589 5593 5597 5600 5603 5609 5615 5619 5623 5627 5630 5633 5636 5640 5643 5648 5652 5656 5659 5661 5663 5666 5668 5670 5673 5676 5677 5679 5681 5684 5689 5694 5697 5701 5706 5708 5709 5714 5716 5718 5721 5723 5725 5727 5728 5730 5733 5737 5742 5743 5744 5752 5756 5755 5757 5760 5761 5764 5763 5761 5762 5763 5763 5764 5764 5765 5766 5765 5764 5763 5762
5513 5517 5521 5526 5531 5536 5541 5545 5549 5552 5555 5558 5562 5566 5571 5575 5580 5584 5589 5593 5596 5600 5605 5610 5614 5617 5621 5624 5627 5630 5634 5639 5643 5647 5651 5654 5656 5659 5662 5663 5666 5669 5670 5672 5674 5676 5679 5684 5689 5691 5695 5698 5700 5704 5707 5708 5710 5713 5715 5717 5720 5722 5725 5729 5733 5738 5738 5740 5747 5748 5747 5752 5757 5759 5761 5760 5758 5758 5757 5756 5758 5758 5758 5758 5757 5756 5756 5756
5510 5513 5517 5523 5527 5531 5535 5539 5543 5547 5550 5554 5559 5564 5568 5572 5577 5581 5584 5587 5591 5595 5600 5605 5608 5611 5614 5617 5621 5625 5629 5633 5636 5640 5644 5647 5650 5654 5656 5658 5662 5664 5665 5668 5670 5672 5675 5679 5683 5686 5687 5690 5695 5698 5699 5701 5703 5702 5705 5710 5715 5718 5722 5726 5731 5733 5732 5736 5741 5740 5741 5749 5753 5755 5756 5754 5752 5752 5750 5750 5750 5750 5750 5749 5748 5749 5751 5751
5507 5509 5513 5518 5522 5526 5530 5534 5538 5541 5546 5552 5557 5560 5565 5569 5573 5575 5578 5582 5586 5590 5594 5598 5601 5604 5608 5611 5615 5619 5623 5627 5630 5634 5637 5640 5644 5647 5648 5652 5655 5658 5660 5662 5665 5668 5671 5674 5678 5679 5680 5685 5689 5689 5691 5693 5689 5689 5699 5710 5715 5717 5721 5722 5723 5726 5727 5730 5732 5732 5739 5746 5745 5745 5748 5746 5745 5745 5745 5744 5742 5742 5743 5742 5741 5743 5744 5744